HVN276 WADD-WBKK

Flight info

Callsign HVN276
Flight time N/A
Altitude 38000
Route DOBMA1A DOBMA M522 ELPOX DCT
Aircraft A359/H-SDE2E3GHIJ3J4J5LM1ORWXY/LB1D1

Departure

Time N/A
Airport Denpasar I Gusti Ngurah Rai International Airport (WADD)

Arrival

Time 2026-05-08 08:08
Airport Kota Kinabalu International Airport (WBKK)
Time Latitude Longitude Altitude Speed Heading
2026-05-08 07:46 5.08582 116.01550 27548 ft 486 kts 345°
2026-05-08 07:47 5.11602 116.00280 26590 ft 460 kts 332°
2026-05-08 07:47 5.14338 115.98729 25292 ft 445 kts 332°
2026-05-08 07:47 5.17033 115.97285 24007 ft 434 kts 334°
2026-05-08 07:47 5.19714 115.95968 22674 ft 424 kts 336°
2026-05-08 07:48 5.22376 115.94725 21356 ft 418 kts 337°
2026-05-08 07:48 5.24978 115.93550 20354 ft 406 kts 338°
2026-05-08 07:48 5.27581 115.92490 19163 ft 402 kts 341°
2026-05-08 07:48 5.30123 115.91511 18469 ft 386 kts 341°
2026-05-08 07:49 5.32539 115.90573 18107 ft 362 kts 341°
2026-05-08 07:49 5.34877 115.89662 17687 ft 359 kts 341°
2026-05-08 07:49 5.37203 115.88756 17241 ft 358 kts 341°
2026-05-08 07:49 5.39514 115.87854 16835 ft 356 kts 341°
2026-05-08 07:50 5.41819 115.86953 16425 ft 354 kts 340°
2026-05-08 07:50 5.44113 115.86054 16013 ft 352 kts 340°
2026-05-08 07:50 5.46390 115.85162 15607 ft 349 kts 340°
2026-05-08 07:50 5.48651 115.84276 15300 ft 349 kts 340°
2026-05-08 07:51 5.50907 115.83392 15072 ft 349 kts 340°
2026-05-08 07:51 5.53171 115.82506 14854 ft 348 kts 340°
2026-05-08 07:51 5.55417 115.81626 14632 ft 344 kts 340°
2026-05-08 07:51 5.57620 115.80761 14336 ft 336 kts 340°
2026-05-08 07:52 5.59785 115.79912 13961 ft 333 kts 340°
2026-05-08 07:52 5.61931 115.79069 13569 ft 330 kts 340°
2026-05-08 07:52 5.64056 115.78237 13150 ft 326 kts 340°
2026-05-08 07:52 5.66160 115.77412 12754 ft 322 kts 340°
2026-05-08 07:53 5.68231 115.76599 12378 ft 317 kts 340°
2026-05-08 07:53 5.70280 115.75836 12001 ft 312 kts 344°
2026-05-08 07:53 5.72402 115.75512 11615 ft 306 kts
2026-05-08 07:53 5.74457 115.75921 11253 ft 300 kts 22°
2026-05-08 07:54 5.76272 115.76884 10905 ft 297 kts 33°
2026-05-08 07:54 5.77979 115.77977 10670 ft 291 kts 33°
2026-05-08 07:54 5.79637 115.79029 10518 ft 280 kts 33°
2026-05-08 07:54 5.81284 115.80057 10322 ft 273 kts 33°
2026-05-08 07:55 5.82866 115.81041 10048 ft 269 kts 33°
2026-05-08 07:55 5.84459 115.82029 9748 ft 268 kts 32°
2026-05-08 07:55 5.86079 115.83033 9505 ft 280 kts 32°
2026-05-08 07:55 5.87703 115.84036 9403 ft 269 kts 32°
2026-05-08 07:56 5.89269 115.85003 9247 ft 259 kts 32°
2026-05-08 07:56 5.90772 115.85930 9129 ft 249 kts 33°
2026-05-08 07:56 5.92220 115.86826 8989 ft 240 kts 32°
2026-05-08 07:56 5.93608 115.87683 8858 ft 231 kts 33°
2026-05-08 07:57 5.94960 115.88518 8713 ft 227 kts 33°
2026-05-08 07:57 5.96301 115.89350 8461 ft 226 kts 33°
2026-05-08 07:57 5.97642 115.90186 8239 ft 230 kts 33°
2026-05-08 07:57 5.99031 115.91044 8095 ft 235 kts 32°
2026-05-08 07:58 6.00420 115.91899 7966 ft 235 kts 32°
2026-05-08 07:58 6.01812 115.92758 7768 ft 234 kts 32°
2026-05-08 07:58 6.03199 115.93613 7531 ft 233 kts 32°
2026-05-08 07:58 6.04579 115.94465 7297 ft 232 kts 32°
2026-05-08 07:59 6.05950 115.95313 7068 ft 232 kts 32°
2026-05-08 07:59 6.07324 115.96161 6857 ft 228 kts 32°
2026-05-08 07:59 6.08649 115.96980 6723 ft 219 kts 32°
2026-05-08 07:59 6.09922 115.97767 6579 ft 212 kts 32°
2026-05-08 08:00 6.11170 115.98539 6356 ft 209 kts 32°
2026-05-08 08:00 6.12400 115.99300 6095 ft 205 kts 32°
2026-05-08 08:00 6.13590 116.00063 5759 ft 200 kts 35°
2026-05-08 08:00 6.14641 116.00970 5513 ft 199 kts 47°
2026-05-08 08:01 6.15467 116.02083 5311 ft 199 kts 59°
2026-05-08 08:01 6.16019 116.03334 5106 ft 199 kts 71°
2026-05-08 08:01 6.16289 116.04698 4915 ft 201 kts 83°
2026-05-08 08:01 6.16254 116.06098 4817 ft 201 kts 96°
2026-05-08 08:02 6.15918 116.07461 4669 ft 202 kts 108°
2026-05-08 08:02 6.15296 116.08726 4413 ft 201 kts 119°
2026-05-08 08:02 6.14577 116.09932 4094 ft 201 kts 118°
2026-05-08 08:02 6.13869 116.11154 4020 ft 205 kts 121°
2026-05-08 08:03 6.12868 116.12170 3898 ft 209 kts 147°
2026-05-08 08:03 6.11458 116.12489 3759 ft 209 kts 178°
2026-05-08 08:03 6.10045 116.12202 3515 ft 208 kts 203°
2026-05-08 08:03 6.08755 116.11545 3394 ft 207 kts 207°
2026-05-08 08:04 6.07518 116.10957 3307 ft 189 kts 203°
2026-05-08 08:04 6.06314 116.10449 3197 ft 184 kts 202°
2026-05-08 08:04 6.05145 116.09955 2891 ft 181 kts 202°
2026-05-08 08:04 6.03993 116.09467 2418 ft 179 kts 203°
2026-05-08 08:05 6.02855 116.08984 1941 ft 175 kts 202°
2026-05-08 08:05 6.01741 116.08516 1463 ft 174 kts 203°
2026-05-08 08:05 6.00632 116.08063 1121 ft 165 kts 201°
2026-05-08 08:05 5.99627 116.07625 1005 ft 153 kts 205°
2026-05-08 08:06 5.98634 116.07203 831 ft 155 kts 204°
2026-05-08 08:06 5.97662 116.06788 635 ft 149 kts 202°
2026-05-08 08:06 5.96734 116.06369 417 ft 145 kts 201°
2026-05-08 08:06 5.95816 116.05978 216 ft 139 kts 198°
2026-05-08 08:07 5.94932 116.05623 83 ft 135 kts 198°
2026-05-08 08:07 5.94084 116.05274 37 ft 126 kts 205°
2026-05-08 08:07 5.93430 116.04993 35 ft 69 kts 202°
2026-05-08 08:07 5.93019 116.04819 33 ft 54 kts 202°
2026-05-08 08:08 5.92797 116.04757 35 ft 30 kts 185°
2026-05-08 08:08 5.92628 116.04765 35 ft 17 kts 173°
2026-05-08 08:08 5.92527 116.04775 35 ft 14 kts 175°
2026-05-08 08:08 5.92430 116.04783 35 ft 14 kts 152°
2026-05-08 08:09 5.92407 116.04857 35 ft 10 kts 67°
2026-05-08 08:09 5.92457 116.04897 35 ft 10 kts 24°
2026-05-08 08:09 5.92496 116.04914 35 ft 4 kts 23°
2026-05-08 08:09 5.92528 116.04928 35 ft 0 kts 23°
2026-05-08 08:10 5.92530 116.04928 35 ft 2 kts 23°
2026-05-08 08:10 5.92543 116.04934 35 ft 4 kts 23°
2026-05-08 08:11 5.92591 116.04960 35 ft 2 kts 51°
2026-05-08 08:11 5.92591 116.04964 35 ft 0 kts 67°
2026-05-08 08:11 5.92591 116.04967 35 ft 1 kts 81°
2026-05-08 08:11 5.92589 116.04970 35 ft 2 kts 103°
2026-05-08 08:12 5.92578 116.04994 35 ft 1 kts 112°
2026-05-08 08:12 5.92575 116.05002 35 ft 0 kts 113°
2026-05-08 08:13 5.92572 116.05009 35 ft 2 kts 113°
2026-05-08 08:14 5.92572 116.05008 35 ft 0 kts 113°